Regional Weather Roundup
Issued by NWS Charleston, SC

Current Version | Previous Version | Graphics & Text | Print | Product List | Glossary On
Versions: 1 2 3 4 5 6 7 8 9 10 11 12 13 14 15 16 17 18 19 20 21 22 23 24 25 26 27 28 29 30 31 32 33 34 35 36 37 38 39 40 41 42 43 44 45 46 47 48 49 50
000
ASUS42 KCHS 300126
RWRCHS

REGIONAL WEATHER ROUNDUP
NATIONAL WEATHER SERVICE CHARLESTON SC
900 PM EDT SUN MAR 29 2015

NOTE: "FAIR" INDICATES FEW OR NO CLOUDS BELOW 12,000 FEET WITH NO
SIGNIFICANT WEATHER AND/OR OBSTRUCTIONS TO VISIBILITY.

NOT ALL STATIONS ARE QUALITY CONTROLLED BY THE NATIONAL
WEATHER SERVICE. USE DATA WITH CAUTION...ESPECIALLY
DEWPOINT OBSERVATIONS.

SCZ027-030-031-034>040-042>050-300200-
...SOUTHEAST SOUTH CAROLINA...

CITY           SKY/WX    TMP DP  RH WIND       PRES   REMARKS
N CHARLESTON   CLEAR     45  32  60 S5        30.35S
WATERFRONT PRK   N/A     52 N/A N/A S8          N/A
MOUNT PLEASANT LGT RAIN  41  37  87 CALM      30.35S
PINOPOLIS        N/A     48  19  32 CALM      30.25F
MONCKS CORNER  FAIR      41  32  70 CALM      30.34S
SUMMERVILLE    FAIR      45  32  61 S3        30.35S
BEAUFORT MCAS  CLEAR     49  36  61 S5        30.35F
BEAUFORT ARPT  FAIR      46  36  66 S5        30.35F
HILTON HEAD IS CLEAR     45  32  61 S3        30.37S
WALTERBORO     CLEAR     46  32  57 S7        30.35R
ALLENDALE      FAIR      46  28  49 CALM      30.32R

...SOUTHERN MIDLANDS AND PEE DEE...

CITY           SKY/WX    TMP DP  RH WIND       PRES   REMARKS
GEORGETOWN     NOT AVBL
KINGSTREE      NOT AVBL
ORANGEBURG     CLEAR     46  23  40 SE5       30.32S
BARNWELL       FAIR      46  28  49 CALM      30.32S
AIKEN          FAIR      45  19  36 S6        30.33S
MANNING        FLURRIES  37  28  70 CALM      30.33S
COLUMBIA       CLEAR     49  20  31 S5        30.29F
SUMTER         CLEAR     44  26  49 S3        30.29S
FLORENCE       CLEAR     43  27  53 S6        30.32R
MYRTLE BEACH   CLEAR     46  30  53 S7        30.36R
N MYRTLE BEACH CLEAR     44  34  67 SW3       30.34R

$$

GAZ063-065-086>088-099>101-113>116-118-119-134>141-150-300200-
...SOUTHEAST GEORGIA...

CITY           SKY/WX    TMP DP  RH WIND       PRES   REMARKS
SAVANNAH ARPT  CLEAR     46  29  51 S5        30.36S
HUNTER AAF     CLEAR     47  32  56 SE2       30.33F
FORT STEWART   CLEAR     48  32  54 SE3       30.34R
STATESBORO     FAIR      49  35  60 S6        30.33S
SYLVANIA       CLEAR     50  34  55 S6        30.33S
CLAXTON        FAIR      50  36  57 SE3       30.34S

...CSRA...CENTRAL AND FAR SOUTHEAST GEORGIA...

CITY           SKY/WX    TMP DP  RH WIND       PRES   REMARKS
THOMSON        CLEAR     47  34  58 CALM      30.33R
AUGUSTA-BUSH   CLEAR     45  23  42 CALM      30.30S
AUGUSTA-DANIEL CLEAR     54  17  23 S6        30.30S
SWAINSBORO     FAIR      50  27  40 CALM      30.31S
VIDALIA        CLEAR     50  32  50 S3        30.32S
EASTMAN        FAIR      51  32  48 CALM      30.33R
HAZLEHURST     FAIR      46  36  66 SE3       30.30S
ALMA           CLEAR     51  37  58 SE8       30.32R
WAYCROSS       CLEAR     55  40  57 SE9       30.34R
JESUP          FAIR      50  37  62 CALM      30.35S
BAXLEY         FAIR      52  37  58 SE6       30.33R
BRUNSWICK      CLEAR     45  37  76 CALM      30.37R
SAINT SIMONS   CLEAR     51  36  56 SE9       30.36S

$$

SCZ027-028-034-036>038-045-046-048>050-GAZ119-141-300200-
...LAKE AND SUPPLEMENTAL COASTAL OBSERVATIONS...

STATION/POSITION TIME  TEMP    WIND        PRES    WAVE   SWELL
                       AIR SEA DIR/SP/G            HT/PER HT/PER/DIR
                 (UTC) (F)     (DEG/KT/KT) (MB)    (FT/S) (FT/S/D)
UPR LAKE MARION  NOT AVBL
WINYAH BAY       0045   46     210/  1     1026.0F
LAKE MURRAY      0000   54     170/  8/ 10 1025.1F
ACE BASIN NERRS  NOT AVBL
FORT PULASKI     0100   49 61  140/  3/  5 1028.5F
SAPELO ISLAND    0100   48     120/  4     1028.0S

$$

ANZ835-935-AMZ111-154-330-350-352-354-370-450-454-472-300200-
...C-MAN AND BUOY OBSERVATIONS...

STATION/POSITION TIME  TEMP    WIND        PRES    WAVE   SWELL
                       AIR SEA DIR/SP/G            HT/PER HT/PER/DIR
                 (UTC) (F)     (DEG/KT/KT) (MB)    (FT/S) (FT/S/D)
BUOY 41004       0050   53 68   70/  4/  8 1027.9R   3/ 8   3/ 8
BUOY 41008       0050   54 60  140/  8/ 10 1028.1F   3/ 7   3/ 60/ 7
FOLLY BEACH CMAN 0100   51     140/  8/  9 1027.7F
CAPERS NEARSHORE NOT AVBL
FRIPP NEARSHORE  0000   53     160/ 10/ 10 1026.9R


STATION/POSITION TIME  TEMP    WIND        PRES    WAVE   SWELL
                       AIR SEA DIR/SP/G            HT/PER HT/PER/DIR
                 (UTC) (F)     (DEG/KT/KT) (MB)    (FT/S) (FT/S/D)
5E ST. MARYS GA  0021      60                N/A     3/11   2/ 70/11
FRYING PAN BUOY  0050   48 65  190/  4/  8 1028.5F   3/ 8   3/ 90/ 8
BUOY 41025       NOT AVBL
CAPE LOOKOUT NC  0100   45     260/  1/  1 1026.8F
BUOY 41002       0050   53 68  360/ 14/ 17 1027.7R   7/ 8   5/ 10/ 8
BUOY 41010       0020   63 75   10/  6/ 10 1026.7R
ST AUGUSTINE FL  0100   56 62   20/  9/ 11 1028.8R


$$



USA.gov is the U.S. government's official web portal to all federal, state and local government web resources and services.